Time,TemperatureF,DewpointF,PressureIn,WindDirection,WindDirectionDegrees,WindSpeedMPH,WindSpeedGustMPH,Humidity,HourlyPrecipIn,Conditions,Clouds,dailyrainin,SoftwareType,DateUTC
2015-05-04 00:04:00,68.4,60.2,29.97,SSE,165,4.0,8.0,75,0.00,,---,0.00,VWS V12.08,2015-05-04 05:04:00,
2015-05-04 00:09:00,68.4,60.2,29.97,SSE,158,6.0,10.0,75,0.00,,---,0.00,VWS V12.08,2015-05-04 05:09:00,
2015-05-04 00:14:00,68.3,60.1,29.97,SSE,160,6.0,6.0,75,0.00,,---,0.00,VWS V12.08,2015-05-04 05:14:00,
2015-05-04 00:19:00,68.2,60.0,29.97,SSE,162,5.0,7.0,75,0.00,,---,0.00,VWS V12.08,2015-05-04 05:19:00,
2015-05-04 00:24:00,68.1,59.5,29.97,SSE,166,5.0,8.0,74,0.00,,---,0.00,VWS V12.08,2015-05-04 05:24:00,
2015-05-04 00:29:00,68.1,59.5,29.97,SSE,148,6.0,9.0,74,0.00,,---,0.00,VWS V12.08,2015-05-04 05:29:00,
2015-05-04 00:34:00,68.0,59.4,29.97,SSE,162,6.0,10.0,74,0.00,,---,0.00,VWS V12.08,2015-05-04 05:34:00,
2015-05-04 00:39:00,68.0,59.4,29.97,SSE,155,4.0,10.0,74,0.00,,---,0.00,VWS V12.08,2015-05-04 05:39:00,
2015-05-04 00:44:00,68.0,59.4,29.97,SE,145,6.0,6.0,74,0.00,,---,0.00,VWS V12.08,2015-05-04 05:44:00,
2015-05-04 00:49:00,67.9,58.9,29.97,SSE,150,7.0,11.0,73,0.00,,---,0.00,VWS V12.08,2015-05-04 05:49:00,
2015-05-04 00:54:00,67.9,58.9,29.97,South,174,5.0,11.0,73,0.00,,---,0.00,VWS V12.08,2015-05-04 05:54:00,
2015-05-04 00:59:00,67.8,59.2,29.97,SSW,203,6.0,11.0,74,0.00,,---,0.00,VWS V12.08,2015-05-04 05:59:00,
2015-05-04 01:04:00,67.9,59.3,29.97,South,177,6.0,10.0,74,0.00,,---,0.00,VWS V12.08,2015-05-04 06:04:00,
2015-05-04 01:09:00,67.8,59.6,29.98,SSE,160,5.0,10.0,75,0.00,,---,0.00,VWS V12.08,2015-05-04 06:09:00,
2015-05-04 01:14:00,67.7,59.9,29.98,SSE,150,3.0,10.0,76,0.00,,---,0.00,VWS V12.08,2015-05-04 06:14:00,
2015-05-04 01:19:00,67.6,60.1,29.98,SSE,160,7.0,9.0,77,0.00,,---,0.00,VWS V12.08,2015-05-04 06:19:00,
2015-05-04 01:24:00,67.6,60.5,29.98,SSE,168,9.0,10.0,78,0.00,,---,0.00,VWS V12.08,2015-05-04 06:24:00,
2015-05-04 01:29:00,67.6,60.9,29.97,SSE,166,4.0,11.0,79,0.00,,---,0.00,VWS V12.08,2015-05-04 06:29:00,
2015-05-04 01:34:00,67.7,61.0,29.97,SSE,162,5.0,11.0,79,0.00,,---,0.00,VWS V12.08,2015-05-04 06:34:00,
2015-05-04 01:39:00,67.8,61.8,29.97,South,188,7.0,11.0,81,0.00,,---,0.00,VWS V12.08,2015-05-04 06:39:00,
2015-05-04 01:44:00,68.0,62.0,29.97,SW,231,4.0,11.0,81,0.00,,---,0.00,VWS V12.08,2015-05-04 06:44:00,
2015-05-04 01:49:00,68.2,62.2,29.97,SSE,158,9.0,14.0,81,0.00,,---,0.00,VWS V12.08,2015-05-04 06:49:00,
2015-05-04 01:54:00,68.4,62.3,29.97,SSE,158,7.0,14.0,81,0.00,,---,0.00,VWS V12.08,2015-05-04 06:54:00,
2015-05-04 01:59:00,68.6,62.5,29.97,South,191,12.0,16.0,81,0.00,,---,0.00,VWS V12.08,2015-05-04 06:59:00,
2015-05-04 02:04:00,68.8,62.7,29.97,South,176,10.0,15.0,81,0.00,,---,0.00,VWS V12.08,2015-05-04 07:04:00,
2015-05-04 02:09:00,69.0,62.9,29.97,SSE,151,5.0,18.0,81,0.00,,---,0.00,VWS V12.08,2015-05-04 07:09:00,
2015-05-04 02:14:00,69.0,62.9,29.97,SW,214,8.0,18.0,81,0.00,,---,0.00,VWS V12.08,2015-05-04 07:14:00,
2015-05-04 02:19:00,69.0,62.9,29.97,SSW,194,9.0,15.0,81,0.00,,---,0.00,VWS V12.08,2015-05-04 07:19:00,
2015-05-04 02:24:00,69.1,63.4,29.98,SSW,204,10.0,16.0,82,0.00,,---,0.00,VWS V12.08,2015-05-04 07:24:00,
2015-05-04 02:29:00,69.0,63.3,29.98,SSE,167,11.0,16.0,82,0.00,,---,0.00,VWS V12.08,2015-05-04 07:29:00,
2015-05-04 02:34:00,69.0,63.3,29.98,SSE,152,9.0,15.0,82,0.00,,---,0.00,VWS V12.08,2015-05-04 07:34:00,
2015-05-04 02:39:00,68.9,63.5,29.98,SSW,197,5.0,15.0,83,0.00,,---,0.00,VWS V12.08,2015-05-04 07:39:00,
2015-05-04 02:44:00,68.8,63.4,29.98,WSW,242,11.0,15.0,83,0.00,,---,0.00,VWS V12.08,2015-05-04 07:44:00,
2015-05-04 02:49:00,68.8,63.4,29.98,SSW,198,7.0,13.0,83,0.00,,---,0.00,VWS V12.08,2015-05-04 07:49:00,
2015-05-04 02:54:00,68.6,63.6,29.98,SW,225,13.0,13.0,84,0.00,,---,0.00,VWS V12.08,2015-05-04 07:54:00,
2015-05-04 02:59:00,68.6,63.6,29.98,South,181,3.0,17.0,84,0.00,,---,0.00,VWS V12.08,2015-05-04 07:59:00,
2015-05-04 03:04:00,68.5,63.5,29.98,SW,229,15.0,15.0,84,0.00,,---,0.00,VWS V12.08,2015-05-04 08:04:00,
2015-05-04 03:09:00,68.4,63.4,29.98,South,179,8.0,15.0,84,0.00,,---,0.00,VWS V12.08,2015-05-04 08:09:00,
2015-05-04 03:14:00,68.3,63.6,29.98,South,170,10.0,15.0,85,0.00,,---,0.00,VWS V12.08,2015-05-04 08:14:00,
2015-05-04 03:19:00,68.3,63.6,29.98,SSW,197,8.0,15.0,85,0.00,,---,0.00,VWS V12.08,2015-05-04 08:19:00,
2015-05-04 03:24:00,68.3,63.6,29.98,WSW,249,7.0,15.0,85,0.00,,---,0.00,VWS V12.08,2015-05-04 08:24:00,
2015-05-04 03:29:00,68.2,63.5,29.98,SSW,195,12.0,15.0,85,0.00,,---,0.00,VWS V12.08,2015-05-04 08:29:00,
2015-05-04 03:34:00,68.2,63.5,29.98,South,177,12.0,18.0,85,0.00,,---,0.00,VWS V12.08,2015-05-04 08:34:00,
2015-05-04 03:39:00,68.1,63.8,29.98,SSW,210,7.0,18.0,86,0.00,,---,0.00,VWS V12.08,2015-05-04 08:39:00,
2015-05-04 03:44:00,68.1,63.8,29.98,WSW,245,5.0,18.0,86,0.00,,---,0.00,VWS V12.08,2015-05-04 08:44:00,
2015-05-04 03:54:00,68.0,63.7,29.99,SSW,203,6.0,14.0,86,0.00,,---,0.00,VWS V12.08,2015-05-04 08:54:00,
2015-05-04 03:59:00,67.9,63.6,29.99,SW,232,5.0,15.0,86,0.00,,---,0.00,VWS V12.08,2015-05-04 08:59:00,
2015-05-04 04:04:00,67.8,63.8,29.99,South,186,9.0,10.0,87,0.00,,---,0.00,VWS V12.08,2015-05-04 09:04:00,
2015-05-04 04:09:00,67.7,63.7,29.99,South,170,10.0,12.0,87,0.00,,---,0.00,VWS V12.08,2015-05-04 09:09:00,
2015-05-04 04:14:00,67.6,63.6,29.99,SW,218,8.0,12.0,87,0.00,,---,0.00,VWS V12.08,2015-05-04 09:14:00,
2015-05-04 04:19:00,67.5,63.8,29.99,South,181,5.0,12.0,88,0.00,,---,0.00,VWS V12.08,2015-05-04 09:19:00,
2015-05-04 04:24:00,67.4,63.4,29.99,South,188,6.0,13.0,87,0.00,,---,0.00,VWS V12.08,2015-05-04 09:24:00,
2015-05-04 04:29:00,67.4,63.7,29.99,South,176,8.0,13.0,88,0.00,,---,0.00,VWS V12.08,2015-05-04 09:29:00,
2015-05-04 04:34:00,67.3,63.6,29.99,SSE,165,4.0,10.0,88,0.00,,---,0.00,VWS V12.08,2015-05-04 09:34:00,
2015-05-04 04:39:00,67.3,63.6,29.99,South,170,3.0,11.0,88,0.00,,---,0.00,VWS V12.08,2015-05-04 09:39:00,
2015-05-04 04:44:00,67.2,63.5,30.00,SSW,196,7.0,11.0,88,0.00,,---,0.00,VWS V12.08,2015-05-04 09:44:00,
2015-05-04 04:49:00,67.1,63.4,30.00,SSE,160,6.0,11.0,88,0.00,,---,0.00,VWS V12.08,2015-05-04 09:49:00,
2015-05-04 04:54:00,67.1,63.4,30.00,SSE,153,8.0,11.0,88,0.00,,---,0.00,VWS V12.08,2015-05-04 09:54:00,
2015-05-04 04:59:00,67.1,63.4,30.00,WSW,240,4.0,12.0,88,0.00,,---,0.00,VWS V12.08,2015-05-04 09:59:00,
2015-05-04 05:04:00,67.0,63.7,30.00,WSW,243,6.0,10.0,89,0.00,,---,0.00,VWS V12.08,2015-05-04 10:04:00,
2015-05-04 05:09:00,66.9,63.6,30.00,SW,224,6.0,10.0,89,0.00,,---,0.00,VWS V12.08,2015-05-04 10:09:00,
2015-05-04 05:14:00,66.8,63.5,30.00,WSW,239,4.0,12.0,89,0.00,,---,0.00,VWS V12.08,2015-05-04 10:14:00,
2015-05-04 05:19:00,66.8,63.5,30.00,SW,230,2.0,12.0,89,0.00,,---,0.00,VWS V12.08,2015-05-04 10:19:00,
2015-05-04 05:24:00,66.8,63.5,30.00,SE,132,5.0,12.0,89,0.00,,---,0.00,VWS V12.08,2015-05-04 10:24:00,
2015-05-04 05:29:00,66.8,63.5,30.01,South,174,9.0,12.0,89,0.00,,---,0.00,VWS V12.08,2015-05-04 10:29:00,
2015-05-04 05:34:00,66.8,63.5,30.00,South,169,7.0,10.0,89,0.00,,---,0.00,VWS V12.08,2015-05-04 10:34:00,
2015-05-04 05:39:00,66.7,63.4,30.00,SSW,204,7.0,12.0,89,0.00,,---,0.00,VWS V12.08,2015-05-04 10:39:00,
2015-05-04 05:44:00,66.7,63.4,30.00,SSW,209,7.0,12.0,89,0.00,,---,0.00,VWS V12.08,2015-05-04 10:44:00,
2015-05-04 05:49:00,66.7,63.4,30.00,South,184,6.0,12.0,89,0.00,,---,0.00,VWS V12.08,2015-05-04 10:49:00,
2015-05-04 05:54:00,66.6,63.6,30.00,South,174,5.0,12.0,90,0.00,,---,0.00,VWS V12.08,2015-05-04 10:54:00,
2015-05-04 05:59:00,66.4,63.4,30.01,South,181,6.0,12.0,90,0.00,,---,0.00,VWS V12.08,2015-05-04 10:59:00,
2015-05-04 06:04:00,66.3,63.3,30.01,South,188,4.0,10.0,90,0.00,,---,0.00,VWS V12.08,2015-05-04 11:04:00,
2015-05-04 06:09:00,66.3,63.3,30.01,SSW,197,6.0,10.0,90,0.00,,---,0.00,VWS V12.08,2015-05-04 11:09:00,
2015-05-04 06:14:00,66.3,63.6,30.01,SSE,156,6.0,10.0,91,0.00,,---,0.00,VWS V12.08,2015-05-04 11:14:00,
2015-05-04 06:19:00,66.3,63.3,30.02,SSE,166,4.0,9.0,90,0.00,,---,0.00,VWS V12.08,2015-05-04 11:19:00,
2015-05-04 06:24:00,66.3,63.3,30.02,SSE,149,2.0,9.0,90,0.00,,---,0.00,VWS V12.08,2015-05-04 11:24:00,
2015-05-04 06:29:00,66.2,63.2,30.02,SSE,148,6.0,9.0,90,0.00,,---,0.00,VWS V12.08,2015-05-04 11:29:00,
2015-05-04 06:34:00,66.1,63.1,30.02,South,176,5.0,9.0,90,0.00,,---,0.00,VWS V12.08,2015-05-04 11:34:00,
2015-05-04 06:39:00,66.0,63.0,30.02,SSE,148,5.0,9.0,90,0.00,,---,0.00,VWS V12.08,2015-05-04 11:39:00,
2015-05-04 06:44:00,65.8,62.8,30.03,South,176,5.0,9.0,90,0.00,,---,0.00,VWS V12.08,2015-05-04 11:44:00,
2015-05-04 06:49:00,65.7,62.7,30.03,SSE,158,6.0,7.0,90,0.00,,---,0.00,VWS V12.08,2015-05-04 11:49:00,
2015-05-04 06:53:00,65.5,62.5,30.03,SE,136,3.0,7.0,90,0.00,,---,0.00,VWS V12.08,2015-05-04 11:53:00,
2015-05-04 06:58:00,65.4,62.7,30.04,SSE,152,4.0,7.0,91,0.00,,---,0.00,VWS V12.08,2015-05-04 11:58:00,
2015-05-04 07:03:00,65.4,62.7,30.04,SE,125,6.0,8.0,91,0.00,,---,0.00,VWS V12.08,2015-05-04 12:03:00,
2015-05-04 07:04:00,65.4,62.7,30.04,SE,143,6.0,8.0,91,0.00,,---,0.00,VWS V12.08,2015-05-04 12:04:00,
2015-05-04 07:09:00,65.4,62.7,30.04,SE,126,4.0,9.0,91,0.00,,---,0.00,VWS V12.08,2015-05-04 12:09:00,
2015-05-04 07:14:00,65.4,62.7,30.04,South,186,3.0,9.0,91,0.00,,---,0.00,VWS V12.08,2015-05-04 12:14:00,
2015-05-04 07:19:00,65.5,62.8,30.05,SSE,164,4.0,9.0,91,0.00,,---,0.00,VWS V12.08,2015-05-04 12:19:00,
2015-05-04 07:24:00,65.5,62.8,30.05,SSE,149,3.0,9.0,91,0.00,,---,0.00,VWS V12.08,2015-05-04 12:24:00,
2015-05-04 07:29:00,65.5,62.8,30.05,SSE,159,7.0,9.0,91,0.00,,---,0.00,VWS V12.08,2015-05-04 12:29:00,
2015-05-04 07:34:00,65.6,62.6,30.05,SSE,164,5.0,7.0,90,0.00,,---,0.00,VWS V12.08,2015-05-04 12:34:00,
2015-05-04 07:39:00,65.6,62.6,30.06,South,174,6.0,7.0,90,0.00,,---,0.00,VWS V12.08,2015-05-04 12:39:00,
2015-05-04 07:44:00,65.7,62.7,30.06,South,171,4.0,10.0,90,0.00,,---,0.00,VWS V12.08,2015-05-04 12:44:00,
2015-05-04 07:49:00,65.7,62.7,30.06,SSE,158,6.0,9.0,90,0.00,,---,0.00,VWS V12.08,2015-05-04 12:49:00,
2015-05-04 07:54:00,65.8,62.8,30.06,SSE,153,6.0,10.0,90,0.00,,---,0.00,VWS V12.08,2015-05-04 12:54:00,
2015-05-04 07:59:00,65.9,62.9,30.07,SSE,156,7.0,11.0,90,0.00,,---,0.00,VWS V12.08,2015-05-04 12:59:00,
2015-05-04 08:04:00,66.2,63.2,30.07,SSE,157,5.0,9.0,90,0.00,,---,0.00,VWS V12.08,2015-05-04 13:04:00,
2015-05-04 08:09:00,66.8,63.5,30.07,SSE,166,4.0,9.0,89,0.00,,---,0.00,VWS V12.08,2015-05-04 13:09:00,
2015-05-04 08:14:00,67.3,63.6,30.07,SE,143,5.0,10.0,88,0.00,,---,0.00,VWS V12.08,2015-05-04 13:14:00,
2015-05-04 08:19:00,67.7,63.7,30.07,South,186,8.0,10.0,87,0.00,,---,0.00,VWS V12.08,2015-05-04 13:19:00,
2015-05-04 08:24:00,67.9,63.9,30.07,SSE,167,5.0,11.0,87,0.00,,---,0.00,VWS V12.08,2015-05-04 13:24:00,
2015-05-04 08:29:00,68.3,64.3,30.08,South,174,6.0,11.0,87,0.00,,---,0.00,VWS V12.08,2015-05-04 13:29:00,
2015-05-04 08:34:00,68.6,64.2,30.08,SSW,205,8.0,12.0,86,0.00,,---,0.00,VWS V12.08,2015-05-04 13:34:00,
2015-05-04 08:39:00,68.9,64.2,30.08,South,173,5.0,13.0,85,0.00,,---,0.00,VWS V12.08,2015-05-04 13:39:00,
2015-05-04 08:44:00,69.3,64.3,30.08,SW,227,6.0,14.0,84,0.00,,---,0.00,VWS V12.08,2015-05-04 13:44:00,
2015-05-04 08:49:00,69.6,64.2,30.08,SW,225,8.0,13.0,83,0.00,,---,0.00,VWS V12.08,2015-05-04 13:49:00,
2015-05-04 08:54:00,69.9,64.5,30.08,SSW,212,6.0,13.0,83,0.00,,---,0.00,VWS V12.08,2015-05-04 13:54:00,
2015-05-04 08:59:00,70.3,64.6,30.08,SSE,166,6.0,13.0,82,0.00,,---,0.00,VWS V12.08,2015-05-04 13:59:00,
2015-05-04 09:04:00,70.5,64.4,30.08,SW,230,7.0,16.0,81,0.00,,---,0.00,VWS V12.08,2015-05-04 14:04:00,
2015-05-04 09:09:00,70.7,64.9,30.08,SW,219,6.0,16.0,82,0.00,,---,0.00,VWS V12.08,2015-05-04 14:09:00,
2015-05-04 09:14:00,70.9,64.4,30.09,South,183,7.0,16.0,80,0.00,,---,0.00,VWS V12.08,2015-05-04 14:14:00,
2015-05-04 09:19:00,71.2,65.1,30.08,South,169,9.0,13.0,81,0.00,,---,0.00,VWS V12.08,2015-05-04 14:19:00,
2015-05-04 09:24:00,71.6,65.5,30.09,SSW,197,9.0,13.0,81,0.00,,---,0.00,VWS V12.08,2015-05-04 14:24:00,
2015-05-04 09:29:00,71.9,65.0,30.09,SW,232,8.0,13.0,79,0.00,,---,0.00,VWS V12.08,2015-05-04 14:29:00,
2015-05-04 09:34:00,71.7,64.8,30.09,WSW,239,11.0,15.0,79,0.00,,---,0.00,VWS V12.08,2015-05-04 14:34:00,
2015-05-04 09:39:00,71.8,64.9,30.09,WSW,250,10.0,15.0,79,0.00,,---,0.00,VWS V12.08,2015-05-04 14:39:00,
2015-05-04 09:44:00,72.0,65.1,30.09,SW,236,5.0,15.0,79,0.00,,---,0.00,VWS V12.08,2015-05-04 14:44:00,
2015-05-04 09:49:00,72.2,65.3,30.09,South,182,12.0,13.0,79,0.00,,---,0.00,VWS V12.08,2015-05-04 14:49:00,
2015-05-04 09:54:00,72.5,65.3,30.09,SSW,193,11.0,15.0,78,0.00,,---,0.00,VWS V12.08,2015-05-04 14:54:00,
2015-05-04 09:59:00,72.6,65.0,30.10,South,187,7.0,17.0,77,0.00,,---,0.00,VWS V12.08,2015-05-04 14:59:00,
2015-05-04 10:04:00,72.8,65.6,30.09,SW,225,5.0,14.0,78,0.00,,---,0.00,VWS V12.08,2015-05-04 15:04:00,
2015-05-04 10:09:00,73.2,65.6,30.09,South,179,7.0,16.0,77,0.00,,---,0.00,VWS V12.08,2015-05-04 15:09:00,
2015-05-04 10:14:00,73.6,65.6,30.10,South,180,10.0,16.0,76,0.00,,---,0.00,VWS V12.08,2015-05-04 15:14:00,
2015-05-04 10:18:00,73.6,65.6,30.10,SSW,212,8.0,12.0,76,0.00,,---,0.00,VWS V12.08,2015-05-04 15:18:00,
2015-05-04 10:23:00,74.1,65.7,30.10,SSW,210,6.0,13.0,75,0.00,,---,0.00,VWS V12.08,2015-05-04 15:23:00,
2015-05-04 10:28:00,74.6,66.2,30.10,West,270,3.0,13.0,75,0.00,,---,0.00,VWS V12.08,2015-05-04 15:28:00,
2015-05-04 10:33:00,75.2,66.3,30.10,SSE,166,10.0,11.0,74,0.00,,---,0.00,VWS V12.08,2015-05-04 15:33:00,
2015-05-04 10:38:00,75.0,66.2,30.11,SSW,197,3.0,16.0,74,0.00,,---,0.00,VWS V12.08,2015-05-04 15:38:00,
2015-05-04 10:43:00,74.4,66.0,30.10,WSW,252,8.0,16.0,75,0.00,,---,0.00,VWS V12.08,2015-05-04 15:43:00,
2015-05-04 10:48:00,74.5,66.1,30.10,SE,143,8.0,15.0,75,0.00,,---,0.00,VWS V12.08,2015-05-04 15:48:00,
2015-05-04 10:53:00,75.0,66.9,30.10,SSE,167,11.0,16.0,76,0.00,,---,0.00,VWS V12.08,2015-05-04 15:53:00,
2015-05-04 10:58:00,75.4,66.5,30.10,SSW,200,10.0,16.0,74,0.00,,---,0.00,VWS V12.08,2015-05-04 15:58:00,
2015-05-04 11:03:00,75.3,66.4,30.10,SSE,162,11.0,13.0,74,0.00,,---,0.00,VWS V12.08,2015-05-04 16:03:00,
2015-05-04 11:08:00,75.3,66.8,30.10,SSE,162,7.0,14.0,75,0.00,,---,0.00,VWS V12.08,2015-05-04 16:08:00,
2015-05-04 11:13:00,75.4,66.2,30.10,South,174,11.0,15.0,73,0.00,,---,0.00,VWS V12.08,2015-05-04 16:13:00,
2015-05-04 11:18:00,75.2,66.7,30.10,South,176,8.0,14.0,75,0.00,,---,0.00,VWS V12.08,2015-05-04 16:18:00,
2015-05-04 11:23:00,75.7,66.4,30.11,South,177,8.0,14.0,73,0.00,,---,0.00,VWS V12.08,2015-05-04 16:23:00,
2015-05-04 11:28:00,75.9,66.6,30.10,SSE,158,14.0,15.0,73,0.00,,---,0.00,VWS V12.08,2015-05-04 16:28:00,
2015-05-04 11:33:00,76.0,66.3,30.11,SSW,198,10.0,15.0,72,0.00,,---,0.00,VWS V12.08,2015-05-04 16:33:00,
2015-05-04 11:38:00,75.8,66.5,30.11,SSE,166,10.0,18.0,73,0.00,,---,0.00,VWS V12.08,2015-05-04 16:38:00,
2015-05-04 11:43:00,76.1,66.0,30.11,South,174,9.0,18.0,71,0.00,,---,0.00,VWS V12.08,2015-05-04 16:43:00,
2015-05-04 11:48:00,76.4,65.5,30.11,South,177,12.0,18.0,69,0.00,,---,0.00,VWS V12.08,2015-05-04 16:48:00,
2015-05-04 11:53:00,76.7,65.3,30.11,SSE,167,12.0,18.0,68,0.00,,---,0.00,VWS V12.08,2015-05-04 16:53:00,
2015-05-04 11:58:00,77.0,65.2,30.10,South,173,9.0,18.0,67,0.00,,---,0.00,VWS V12.08,2015-05-04 16:58:00,
2015-05-04 12:03:00,77.5,65.7,30.10,SSW,212,11.0,15.0,67,0.00,,---,0.00,VWS V12.08,2015-05-04 17:03:00,
2015-05-04 12:08:00,77.4,66.0,30.10,SSE,165,12.0,17.0,68,0.00,,---,0.00,VWS V12.08,2015-05-04 17:08:00,
2015-05-04 12:13:00,77.5,65.3,30.10,SSE,158,8.0,17.0,66,0.00,,---,0.00,VWS V12.08,2015-05-04 17:13:00,
2015-05-04 12:18:00,78.0,65.7,30.10,SW,232,9.0,13.0,66,0.00,,---,0.00,VWS V12.08,2015-05-04 17:18:00,
2015-05-04 12:23:00,78.5,66.2,30.10,SSE,162,7.0,13.0,66,0.00,,---,0.00,VWS V12.08,2015-05-04 17:23:00,
2015-05-04 12:28:00,78.5,65.8,30.10,SSW,194,12.0,15.0,65,0.00,,---,0.00,VWS V12.08,2015-05-04 17:28:00,
2015-05-04 12:33:00,78.1,65.4,30.10,SSE,162,6.0,16.0,65,0.00,,---,0.00,VWS V12.08,2015-05-04 17:33:00,
2015-05-04 12:38:00,78.0,65.7,30.10,SSE,163,8.0,16.0,66,0.00,,---,0.00,VWS V12.08,2015-05-04 17:38:00,
2015-05-04 12:43:00,78.6,65.0,30.10,SW,217,12.0,16.0,63,0.00,,---,0.00,VWS V12.08,2015-05-04 17:43:00,
2015-05-04 12:48:00,78.5,65.3,30.09,South,186,9.0,16.0,64,0.00,,---,0.00,VWS V12.08,2015-05-04 17:48:00,
2015-05-04 12:53:00,78.7,65.5,30.09,SE,141,10.0,16.0,64,0.00,,---,0.00,VWS V12.08,2015-05-04 17:53:00,
2015-05-04 12:58:00,79.0,64.9,30.09,SSW,204,11.0,16.0,62,0.00,,---,0.00,VWS V12.08,2015-05-04 17:58:00,
2015-05-04 13:03:00,78.7,64.6,30.09,SSE,155,9.0,11.0,62,0.00,,---,0.00,VWS V12.08,2015-05-04 18:03:00,
2015-05-04 13:08:00,78.3,64.2,30.09,SSW,201,4.0,12.0,62,0.00,,---,0.00,VWS V12.08,2015-05-04 18:08:00,
2015-05-04 13:13:00,78.3,64.2,30.08,SSE,165,7.0,12.0,62,0.00,,---,0.00,VWS V12.08,2015-05-04 18:13:00,
2015-05-04 13:18:00,78.6,64.5,30.08,SSE,160,8.0,12.0,62,0.00,,---,0.00,VWS V12.08,2015-05-04 18:18:00,
2015-05-04 13:23:00,79.2,63.7,30.08,SSE,153,9.0,13.0,59,0.00,,---,0.00,VWS V12.08,2015-05-04 18:23:00,
2015-05-04 13:28:00,79.5,64.4,30.08,SSE,160,7.0,13.0,60,0.00,,---,0.00,VWS V12.08,2015-05-04 18:28:00,
2015-05-04 13:33:00,79.5,64.4,30.07,SE,138,5.0,15.0,60,0.00,,---,0.00,VWS V12.08,2015-05-04 18:33:00,
2015-05-04 13:38:00,80.1,65.0,30.07,South,179,11.0,15.0,60,0.00,,---,0.00,VWS V12.08,2015-05-04 18:38:00,
2015-05-04 13:43:00,80.2,63.1,30.07,SSE,162,5.0,15.0,56,0.00,,---,0.00,VWS V12.08,2015-05-04 18:43:00,
2015-05-04 13:48:00,80.3,63.7,30.07,SW,229,6.0,14.0,57,0.00,,---,0.00,VWS V12.08,2015-05-04 18:48:00,
2015-05-04 13:53:00,80.3,63.2,30.06,SW,214,1.0,14.0,56,0.00,,---,0.00,VWS V12.08,2015-05-04 18:53:00,
2015-05-04 13:58:00,80.9,63.2,30.06,SSE,155,12.0,14.0,55,0.00,,---,0.00,VWS V12.08,2015-05-04 18:58:00,
2015-05-04 14:03:00,81.4,61.5,30.06,SSE,152,11.0,15.0,51,0.00,,---,0.00,VWS V12.08,2015-05-04 19:03:00,
2015-05-04 14:08:00,81.7,62.4,30.06,SE,141,10.0,15.0,52,0.00,,---,0.00,VWS V12.08,2015-05-04 19:08:00,
2015-05-04 14:13:00,81.7,60.7,30.06,South,173,10.0,17.0,49,0.00,,---,0.00,VWS V12.08,2015-05-04 19:13:00,
2015-05-04 14:18:00,81.2,61.4,30.05,SSE,161,10.0,17.0,51,0.00,,---,0.00,VWS V12.08,2015-05-04 19:18:00,
2015-05-04 14:23:00,81.4,61.0,30.05,SSE,153,9.0,17.0,50,0.00,,---,0.00,VWS V12.08,2015-05-04 19:23:00,
2015-05-04 14:28:00,81.7,61.3,30.05,SSE,150,12.0,17.0,50,0.00,,---,0.00,VWS V12.08,2015-05-04 19:28:00,
2015-05-04 14:33:00,81.4,61.0,30.05,South,184,9.0,16.0,50,0.00,,---,0.00,VWS V12.08,2015-05-04 19:33:00,
2015-05-04 14:38:00,81.1,60.2,30.05,ESE,109,8.0,16.0,49,0.00,,---,0.00,VWS V12.08,2015-05-04 19:38:00,
2015-05-04 14:43:00,81.5,60.5,30.05,SSE,160,12.0,16.0,49,0.00,,---,0.00,VWS V12.08,2015-05-04 19:43:00,
2015-05-04 14:48:00,81.8,61.4,30.05,South,169,9.0,16.0,50,0.00,,---,0.00,VWS V12.08,2015-05-04 19:48:00,
2015-05-04 14:53:00,81.8,60.2,30.04,SE,130,7.0,16.0,48,0.00,,---,0.00,VWS V12.08,2015-05-04 19:53:00,
2015-05-04 14:58:00,81.9,60.3,30.04,SSE,166,9.0,16.0,48,0.00,,---,0.00,VWS V12.08,2015-05-04 19:58:00,
2015-05-04 15:03:00,82.1,61.1,30.04,SW,219,10.0,16.0,49,0.00,,---,0.00,VWS V12.08,2015-05-04 20:03:00,
2015-05-04 15:13:00,82.3,60.7,30.04,SSE,160,7.0,16.0,48,0.00,,---,0.00,VWS V12.08,2015-05-04 20:13:00,
2015-05-04 15:18:00,82.2,60.6,30.03,SSE,158,8.0,16.0,48,0.00,,---,0.00,VWS V12.08,2015-05-04 20:18:00,
2015-05-04 15:23:00,82.1,59.9,30.03,SSE,162,10.0,16.0,47,0.00,,---,0.00,VWS V12.08,2015-05-04 20:23:00,
2015-05-04 15:28:00,81.8,60.8,30.03,SSE,155,9.0,16.0,49,0.00,,---,0.00,VWS V12.08,2015-05-04 20:28:00,
2015-05-04 15:33:00,82.0,61.0,30.03,SSE,160,10.0,15.0,49,0.00,,---,0.00,VWS V12.08,2015-05-04 20:33:00,
2015-05-04 15:38:00,82.1,61.1,30.03,SSE,150,13.0,15.0,49,0.00,,---,0.00,VWS V12.08,2015-05-04 20:38:00,
2015-05-04 15:43:00,81.8,60.8,30.02,SSE,158,11.0,15.0,49,0.00,,---,0.00,VWS V12.08,2015-05-04 20:43:00,
2015-05-04 15:48:00,81.9,60.9,30.02,SSE,152,14.0,18.0,49,0.00,,---,0.00,VWS V12.08,2015-05-04 20:48:00,
2015-05-04 15:53:00,82.7,60.4,30.02,SSW,212,7.0,18.0,47,0.00,,---,0.00,VWS V12.08,2015-05-04 20:53:00,
2015-05-04 15:58:00,82.7,60.4,30.02,South,172,13.0,18.0,47,0.00,,---,0.00,VWS V12.08,2015-05-04 20:58:00,
2015-05-04 16:03:00,82.6,59.8,30.02,South,172,8.0,16.0,46,0.00,,---,0.00,VWS V12.08,2015-05-04 21:03:00,
2015-05-04 16:08:00,82.6,59.1,30.02,SSE,156,10.0,16.0,45,0.00,,---,0.00,VWS V12.08,2015-05-04 21:08:00,
2015-05-04 16:13:00,82.3,59.5,30.01,South,176,12.0,16.0,46,0.00,,---,0.00,VWS V12.08,2015-05-04 21:13:00,
2015-05-04 16:18:00,82.3,59.5,30.01,SSE,153,7.0,14.0,46,0.00,,---,0.00,VWS V12.08,2015-05-04 21:18:00,
2015-05-04 16:23:00,82.3,61.2,30.01,SSE,154,10.0,14.0,49,0.00,,---,0.00,VWS V12.08,2015-05-04 21:23:00,
2015-05-04 16:28:00,82.2,61.2,30.01,SE,139,11.0,15.0,49,0.00,,---,0.00,VWS V12.08,2015-05-04 21:28:00,
2015-05-04 16:33:00,81.8,61.9,30.01,SSE,152,4.0,12.0,51,0.00,,---,0.00,VWS V12.08,2015-05-04 21:33:00,
2015-05-04 16:38:00,81.3,62.0,30.00,SE,143,9.0,12.0,52,0.00,,---,0.00,VWS V12.08,2015-05-04 21:38:00,
2015-05-04 16:43:00,81.3,62.0,30.00,South,171,3.0,13.0,52,0.00,,---,0.00,VWS V12.08,2015-05-04 21:43:00,
2015-05-04 16:48:00,81.5,61.7,30.00,SSE,160,7.0,12.0,51,0.00,,---,0.00,VWS V12.08,2015-05-04 21:48:00,
2015-05-04 16:53:00,81.6,62.8,30.00,SE,143,10.0,12.0,53,0.00,,---,0.00,VWS V12.08,2015-05-04 21:53:00,
2015-05-04 16:58:00,82.1,60.5,30.00,South,174,6.0,13.0,48,0.00,,---,0.00,VWS V12.08,2015-05-04 21:58:00,
2015-05-04 17:03:00,82.1,61.6,30.00,SE,142,7.0,12.0,50,0.00,,---,0.00,VWS V12.08,2015-05-04 22:03:00,
2015-05-04 17:08:00,82.0,60.4,30.00,ESE,115,6.0,15.0,48,0.00,,---,0.00,VWS V12.08,2015-05-04 22:08:00,
2015-05-04 17:13:00,82.0,60.4,30.00,SE,135,11.0,15.0,48,0.00,,---,0.00,VWS V12.08,2015-05-04 22:13:00,
2015-05-04 17:18:00,82.0,61.0,30.00,SSE,163,9.0,14.0,49,0.00,,---,0.00,VWS V12.08,2015-05-04 22:18:00,
2015-05-04 17:23:00,81.9,60.9,30.00,SSE,155,6.0,14.0,49,0.00,,---,0.00,VWS V12.08,2015-05-04 22:23:00,
2015-05-04 17:28:00,81.8,61.4,30.00,South,174,10.0,14.0,50,0.00,,---,0.00,VWS V12.08,2015-05-04 22:28:00,
2015-05-04 17:33:00,81.5,61.1,30.00,South,170,7.0,13.0,50,0.00,,---,0.00,VWS V12.08,2015-05-04 22:33:00,
2015-05-04 17:38:00,81.2,60.8,30.00,SSE,147,11.0,14.0,50,0.00,,---,0.00,VWS V12.08,2015-05-04 22:38:00,
2015-05-04 17:43:00,80.4,60.6,30.00,SSE,157,5.0,15.0,51,0.00,,---,0.00,VWS V12.08,2015-05-04 22:43:00,
2015-05-04 17:48:00,79.8,61.2,30.00,South,186,6.0,12.0,53,0.00,,---,0.00,VWS V12.08,2015-05-04 22:48:00,
2015-05-04 17:53:00,79.4,61.8,30.00,SSE,165,8.0,14.0,55,0.00,,---,0.00,VWS V12.08,2015-05-04 22:53:00,
2015-05-04 17:58:00,78.9,61.9,30.00,SE,130,4.0,14.0,56,0.00,,---,0.00,VWS V12.08,2015-05-04 22:58:00,
2015-05-04 18:03:00,78.5,61.0,30.00,SE,143,4.0,12.0,55,0.00,,---,0.00,VWS V12.08,2015-05-04 23:03:00,
2015-05-04 18:08:00,78.3,61.3,30.00,SSE,165,8.0,12.0,56,0.00,,---,0.00,VWS V12.08,2015-05-04 23:08:00,
2015-05-04 18:13:00,78.2,61.2,30.00,SE,128,6.0,12.0,56,0.00,,---,0.00,VWS V12.08,2015-05-04 23:13:00,
2015-05-04 18:18:00,78.1,61.1,30.00,SE,144,9.0,11.0,56,0.00,,---,0.00,VWS V12.08,2015-05-04 23:18:00,
2015-05-04 18:23:00,78.2,61.2,30.00,SSE,151,4.0,15.0,56,0.00,,---,0.00,VWS V12.08,2015-05-04 23:23:00,
2015-05-04 18:28:00,78.2,61.2,29.99,SE,139,6.0,15.0,56,0.00,,---,0.00,VWS V12.08,2015-05-04 23:28:00,
2015-05-04 18:33:00,78.4,61.4,29.99,ESE,112,9.0,11.0,56,0.00,,---,0.00,VWS V12.08,2015-05-04 23:33:00,
2015-05-04 18:38:00,78.5,61.0,29.99,SSE,158,8.0,14.0,55,0.00,,---,0.00,VWS V12.08,2015-05-04 23:38:00,
2015-05-04 18:43:00,78.6,61.6,29.99,SE,125,8.0,14.0,56,0.00,,---,0.00,VWS V12.08,2015-05-04 23:43:00,
2015-05-04 18:48:00,78.8,61.3,29.99,SW,232,6.0,14.0,55,0.00,,---,0.00,VWS V12.08,2015-05-04 23:48:00,
2015-05-04 18:53:00,79.1,61.0,29.99,SSE,166,7.0,14.0,54,0.00,,---,0.00,VWS V12.08,2015-05-04 23:53:00,
2015-05-04 18:58:00,79.3,60.7,29.99,SE,134,11.0,15.0,53,0.00,,---,0.00,VWS V12.08,2015-05-04 23:58:00,
2015-05-04 19:03:00,79.3,60.7,29.99,SE,144,9.0,14.0,53,0.00,,---,0.00,VWS V12.08,2015-05-05 00:03:00,
2015-05-04 19:08:00,79.1,60.5,29.99,SE,139,9.0,14.0,53,0.00,,---,0.00,VWS V12.08,2015-05-05 00:08:00,
2015-05-04 19:13:00,78.9,59.8,29.99,SSE,149,12.0,14.0,52,0.00,,---,0.00,VWS V12.08,2015-05-05 00:13:00,
2015-05-04 19:18:00,78.6,59.0,29.99,SSE,163,7.0,15.0,51,0.00,,---,0.00,VWS V12.08,2015-05-05 00:18:00,
2015-05-04 19:23:00,78.3,59.8,29.99,South,176,9.0,15.0,53,0.00,,---,0.00,VWS V12.08,2015-05-05 00:23:00,
2015-05-04 19:28:00,78.0,59.0,29.98,SSE,154,8.0,15.0,52,0.00,,---,0.00,VWS V12.08,2015-05-05 00:28:00,
2015-05-04 19:33:00,77.9,58.9,29.98,SSE,153,8.0,13.0,52,0.00,,---,0.00,VWS V12.08,2015-05-05 00:33:00,
2015-05-04 19:38:00,77.7,59.2,29.98,SSE,151,6.0,13.0,53,0.00,,---,0.00,VWS V12.08,2015-05-05 00:38:00,
2015-05-04 19:43:00,77.4,59.5,29.98,SSE,164,3.0,13.0,54,0.00,,---,0.00,VWS V12.08,2015-05-05 00:43:00,
2015-05-04 19:48:00,76.9,59.5,29.98,SSE,157,3.0,9.0,55,0.00,,---,0.00,VWS V12.08,2015-05-05 00:48:00,
2015-05-04 19:53:00,76.4,59.6,29.98,SE,134,4.0,9.0,56,0.00,,---,0.00,VWS V12.08,2015-05-05 00:53:00,
2015-05-04 19:58:00,75.9,59.1,29.98,SE,142,6.0,9.0,56,0.00,,---,0.00,VWS V12.08,2015-05-05 00:58:00,
2015-05-04 20:03:00,75.4,59.1,29.98,SE,135,7.0,10.0,57,0.00,,---,0.00,VWS V12.08,2015-05-05 01:03:00,
2015-05-04 20:08:00,75.1,58.8,29.99,SSE,162,4.0,10.0,57,0.00,,---,0.00,VWS V12.08,2015-05-05 01:08:00,
2015-05-04 20:13:00,74.8,59.0,29.98,ESE,118,5.0,10.0,58,0.00,,---,0.00,VWS V12.08,2015-05-05 01:13:00,
2015-05-04 20:18:00,74.6,59.3,29.99,SSE,150,3.0,8.0,59,0.00,,---,0.00,VWS V12.08,2015-05-05 01:18:00,
2015-05-04 20:23:00,74.3,59.5,29.99,ESE,109,4.0,8.0,60,0.00,,---,0.00,VWS V12.08,2015-05-05 01:23:00,
2015-05-04 20:28:00,73.9,59.6,29.98,SE,129,1.0,8.0,61,0.00,,---,0.00,VWS V12.08,2015-05-05 01:28:00,
2015-05-04 20:33:00,73.6,59.3,29.98,ESE,105,7.0,7.0,61,0.00,,---,0.00,VWS V12.08,2015-05-05 01:33:00,
2015-05-04 20:38:00,73.3,59.5,29.99,SE,125,4.0,7.0,62,0.00,,---,0.00,VWS V12.08,2015-05-05 01:38:00,
2015-05-04 20:43:00,73.0,59.7,29.99,ESE,121,0.0,7.0,63,0.00,,---,0.00,VWS V12.08,2015-05-05 01:43:00,
2015-05-04 20:48:00,72.7,59.4,29.99,ESE,109,5.0,5.0,63,0.00,,---,0.00,VWS V12.08,2015-05-05 01:48:00,
2015-05-04 20:53:00,72.5,59.6,29.99,SE,143,2.0,5.0,64,0.00,,---,0.00,VWS V12.08,2015-05-05 01:53:00,
2015-05-04 20:58:00,72.3,59.9,29.99,SSE,150,2.0,5.0,65,0.00,,---,0.00,VWS V12.08,2015-05-05 01:58:00,
2015-05-04 21:03:00,72.0,59.6,29.99,ESE,110,4.0,7.0,65,0.00,,---,0.00,VWS V12.08,2015-05-05 02:03:00,
2015-05-04 21:08:00,71.7,59.8,29.99,SE,128,5.0,7.0,66,0.00,,---,0.00,VWS V12.08,2015-05-05 02:08:00,
2015-05-04 21:13:00,71.6,59.7,29.99,ESE,122,1.0,10.0,66,0.00,,---,0.00,VWS V12.08,2015-05-05 02:13:00,
2015-05-04 21:18:00,71.6,60.1,29.99,ESE,105,3.0,7.0,67,0.00,,---,0.00,VWS V12.08,2015-05-05 02:18:00,
2015-05-04 21:23:00,71.5,60.0,30.00,SSE,147,3.0,7.0,67,0.00,,---,0.00,VWS V12.08,2015-05-05 02:23:00,
2015-05-04 21:28:00,71.5,60.0,30.00,SSE,152,4.0,7.0,67,0.00,,---,0.00,VWS V12.08,2015-05-05 02:28:00,
2015-05-04 21:33:00,71.5,59.6,30.00,SSE,155,5.0,9.0,66,0.00,,---,0.00,VWS V12.08,2015-05-05 02:33:00,
2015-05-04 21:38:00,71.8,59.4,30.00,SE,142,8.0,11.0,65,0.00,,---,0.00,VWS V12.08,2015-05-05 02:38:00,
2015-05-04 21:43:00,72.0,59.2,30.00,SSE,160,8.0,11.0,64,0.00,,---,0.00,VWS V12.08,2015-05-05 02:43:00,
2015-05-04 21:48:00,72.2,59.4,30.00,SE,143,4.0,14.0,64,0.00,,---,0.00,VWS V12.08,2015-05-05 02:48:00,
2015-05-04 21:53:00,72.2,59.4,30.00,SSE,149,5.0,14.0,64,0.00,,---,0.00,VWS V12.08,2015-05-05 02:53:00,
2015-05-04 21:58:00,72.2,59.4,30.00,SE,134,7.0,14.0,64,0.00,,---,0.00,VWS V12.08,2015-05-05 02:58:00,
2015-05-04 22:03:00,72.0,59.6,30.00,ESE,120,4.0,10.0,65,0.00,,---,0.00,VWS V12.08,2015-05-05 03:03:00,
2015-05-04 22:08:00,71.9,59.5,30.00,SSE,151,7.0,10.0,65,0.00,,---,0.00,VWS V12.08,2015-05-05 03:08:00,
2015-05-04 22:13:00,71.8,59.4,30.00,SSE,165,9.0,10.0,65,0.00,,---,0.00,VWS V12.08,2015-05-05 03:13:00,
2015-05-04 22:18:00,71.7,59.3,30.00,SE,145,8.0,11.0,65,0.00,,---,0.00,VWS V12.08,2015-05-05 03:18:00,
2015-05-04 22:23:00,71.8,59.4,30.00,SSE,163,5.0,13.0,65,0.00,,---,0.00,VWS V12.08,2015-05-05 03:23:00,
2015-05-04 22:28:00,71.8,59.4,30.00,SE,143,6.0,15.0,65,0.00,,---,0.00,VWS V12.08,2015-05-05 03:28:00,
2015-05-04 22:33:00,71.8,59.4,30.00,SSW,202,5.0,12.0,65,0.00,,---,0.00,VWS V12.08,2015-05-05 03:33:00,
2015-05-04 22:38:00,71.7,59.8,30.01,SSE,158,9.0,15.0,66,0.00,,---,0.00,VWS V12.08,2015-05-05 03:38:00,
2015-05-04 22:43:00,71.6,59.7,30.01,SSE,147,6.0,15.0,66,0.00,,---,0.00,VWS V12.08,2015-05-05 03:43:00,
2015-05-04 22:48:00,71.5,60.0,30.01,SE,125,5.0,9.0,67,0.00,,---,0.00,VWS V12.08,2015-05-05 03:48:00,
2015-05-04 22:53:00,71.1,60.4,30.00,SE,143,5.0,9.0,69,0.00,,---,0.00,VWS V12.08,2015-05-05 03:53:00,
2015-05-04 22:58:00,70.8,60.1,30.00,SSE,163,4.0,9.0,69,0.00,,---,0.00,VWS V12.08,2015-05-05 03:58:00,
2015-05-04 23:03:00,70.5,59.8,30.00,SSE,150,5.0,9.0,69,0.00,,---,0.00,VWS V12.08,2015-05-05 04:03:00,
2015-05-04 23:08:00,70.3,59.7,30.00,South,169,5.0,11.0,69,0.00,,---,0.00,VWS V12.08,2015-05-05 04:08:00,
2015-05-04 23:13:00,70.1,59.5,30.01,SSW,208,6.0,11.0,69,0.00,,---,0.00,VWS V12.08,2015-05-05 04:13:00,
2015-05-04 23:18:00,70.0,59.8,30.01,SE,132,5.0,8.0,70,0.00,,---,0.00,VWS V12.08,2015-05-05 04:18:00,
2015-05-04 23:23:00,69.8,59.6,30.01,South,177,7.0,10.0,70,0.00,,---,0.00,VWS V12.08,2015-05-05 04:23:00,
2015-05-04 23:28:00,69.7,59.5,30.01,SSE,160,3.0,10.0,70,0.00,,---,0.00,VWS V12.08,2015-05-05 04:28:00,
2015-05-04 23:33:00,69.5,59.7,30.01,SSE,148,4.0,7.0,71,0.00,,---,0.00,VWS V12.08,2015-05-05 04:33:00,
2015-05-04 23:38:00,69.4,59.6,30.01,SE,146,2.0,8.0,71,0.00,,---,0.00,VWS V12.08,2015-05-05 04:38:00,
2015-05-04 23:43:00,69.2,59.4,30.01,SE,131,6.0,10.0,71,0.00,,---,0.00,VWS V12.08,2015-05-05 04:43:00,
2015-05-04 23:48:00,69.0,59.6,30.01,SE,141,4.0,8.0,72,0.00,,---,0.00,VWS V12.08,2015-05-05 04:48:00,
2015-05-04 23:53:00,69.0,59.6,30.01,SSE,151,5.0,8.0,72,0.00,,---,0.00,VWS V12.08,2015-05-05 04:53:00,